TimeCDT,TemperatureF,Dew PointF,Humidity,Sea Level PressureIn,VisibilityMPH,Wind Direction,Wind SpeedMPH,Gust SpeedMPH,PrecipitationIn,Events,Conditions,WindDirDegrees,DateUTC
12:15 AM,24.8,17.6,74,30.23,10.0,Calm,Calm,-,N/A,,Clear,0,2013-03-29 05:15:00
12:35 AM,23.0,17.6,80,30.23,10.0,East,3.5,-,N/A,,Clear,80,2013-03-29 05:35:00
12:53 AM,23.0,17.6,80,30.23,10.0,East,3.5,-,N/A,,Clear,90,2013-03-29 05:53:00
1:15 AM,24.8,17.6,74,30.22,10.0,East,4.6,-,N/A,,Clear,90,2013-03-29 06:15:00
1:35 AM,24.8,17.6,74,30.23,10.0,East,3.5,-,N/A,,Clear,90,2013-03-29 06:35:00
1:53 AM,23.0,17.6,80,30.23,10.0,Calm,Calm,-,N/A,,Clear,0,2013-03-29 06:53:00
2:15 AM,23.0,17.6,80,30.23,10.0,Calm,Calm,-,N/A,,Scattered Clouds,0,2013-03-29 07:15:00
2:34 AM,21.2,17.6,86,30.23,10.0,Calm,Calm,-,N/A,,Scattered Clouds,0,2013-03-29 07:34:00
2:53 AM,21.2,17.6,86,30.22,7.0,Calm,Calm,-,N/A,,Clear,0,2013-03-29 07:53:00
3:15 AM,21.2,17.6,86,30.22,10.0,Calm,Calm,-,N/A,,Clear,0,2013-03-29 08:15:00
3:34 AM,23.0,17.6,80,30.22,10.0,Calm,Calm,-,N/A,,Clear,0,2013-03-29 08:34:00
3:53 AM,23.0,17.6,80,30.21,10.0,ESE,4.6,-,N/A,,Clear,120,2013-03-29 08:53:00
4:15 AM,23.0,17.6,80,30.20,10.0,ESE,3.5,-,N/A,,Clear,110,2013-03-29 09:15:00
4:34 AM,21.2,17.6,86,30.20,7.0,ESE,3.5,-,N/A,,Clear,110,2013-03-29 09:34:00
4:53 AM,21.2,17.6,86,30.20,7.0,Calm,Calm,-,N/A,,Clear,0,2013-03-29 09:53:00
5:15 AM,21.2,17.6,86,30.20,7.0,Calm,Calm,-,N/A,,Clear,0,2013-03-29 10:15:00
5:35 AM,19.4,15.8,86,30.20,7.0,Calm,Calm,-,N/A,,Clear,0,2013-03-29 10:35:00
5:53 AM,19.4,15.8,86,30.20,7.0,Calm,Calm,-,N/A,,Clear,0,2013-03-29 10:53:00
6:15 AM,19.4,15.8,86,30.19,7.0,Calm,Calm,-,N/A,,Clear,0,2013-03-29 11:15:00
6:35 AM,19.4,15.8,86,30.19,5.0,Calm,Calm,-,N/A,,Clear,0,2013-03-29 11:35:00
6:53 AM,17.6,15.8,93,30.19,5.0,Calm,Calm,-,N/A,,Clear,0,2013-03-29 11:53:00
7:15 AM,17.6,15.8,93,30.19,4.0,East,3.5,-,N/A,,Clear,100,2013-03-29 12:15:00
7:34 AM,17.6,15.8,93,30.20,3.0,Calm,Calm,-,N/A,,Clear,0,2013-03-29 12:34:00
7:53 AM,19.4,17.6,93,30.20,4.0,East,3.5,-,N/A,,Clear,100,2013-03-29 12:53:00
8:15 AM,23.0,19.4,86,30.20,4.0,ESE,4.6,-,N/A,,Clear,110,2013-03-29 13:15:00
8:34 AM,23.0,19.4,86,30.20,4.0,ESE,4.6,-,N/A,,Clear,120,2013-03-29 13:34:00
8:53 AM,24.8,19.4,80,30.19,4.0,SE,4.6,-,N/A,,Clear,130,2013-03-29 13:53:00
9:15 AM,24.8,21.2,86,30.19,4.0,ESE,3.5,-,N/A,,Clear,120,2013-03-29 14:15:00
9:34 AM,26.6,21.2,80,30.19,5.0,ESE,3.5,-,N/A,,Haze,120,2013-03-29 14:34:00
9:53 AM,28.4,23.0,80,30.18,5.0,SSE,3.5,-,N/A,,Haze,150,2013-03-29 14:53:00
10:15 AM,30.2,24.8,80,30.18,7.0,SE,4.6,-,N/A,,Clear,140,2013-03-29 15:15:00
10:35 AM,32.0,26.6,80,30.18,7.0,SE,4.6,-,N/A,,Clear,140,2013-03-29 15:35:00
10:53 AM,33.8,26.6,75,30.17,7.0,SE,4.6,-,N/A,,Clear,140,2013-03-29 15:53:00
11:15 AM,35.6,26.6,70,30.17,7.0,SE,3.5,-,N/A,,Clear,140,2013-03-29 16:15:00
11:53 AM,37.4,28.4,70,30.17,7.0,SE,3.5,-,N/A,,Scattered Clouds,130,2013-03-29 16:53:00
12:15 PM,37.4,28.4,70,30.16,7.0,SE,3.5,-,N/A,,Clear,130,2013-03-29 17:15:00
12:35 PM,39.2,28.4,65,30.15,7.0,ESE,4.6,-,N/A,,Clear,120,2013-03-29 17:35:00
12:52 PM,39.2,28.4,65,30.15,7.0,SE,4.6,-,N/A,,Scattered Clouds,130,2013-03-29 17:52:00
1:15 PM,39.2,28.4,65,30.14,7.0,ESE,6.9,-,N/A,,Mostly Cloudy,120,2013-03-29 18:15:00
1:35 PM,39.2,28.4,65,30.14,10.0,SE,5.8,-,N/A,,Mostly Cloudy,130,2013-03-29 18:35:00
1:52 PM,41.0,30.2,65,30.13,10.0,ESE,5.8,-,N/A,,Scattered Clouds,120,2013-03-29 18:52:00
2:15 PM,42.8,30.2,61,30.12,10.0,SE,5.8,-,N/A,,Clear,130,2013-03-29 19:15:00
2:35 PM,42.8,30.2,61,30.12,10.0,SE,5.8,-,N/A,,Clear,130,2013-03-29 19:35:00
2:53 PM,42.8,30.2,61,30.11,7.0,SE,6.9,-,N/A,,Clear,130,2013-03-29 19:53:00
3:15 PM,42.8,30.2,61,30.10,10.0,SE,6.9,-,N/A,,Clear,130,2013-03-29 20:15:00
3:35 PM,42.8,30.2,61,30.09,10.0,ESE,8.1,-,N/A,,Clear,120,2013-03-29 20:35:00
3:52 PM,42.8,30.2,61,30.08,10.0,ESE,8.1,-,N/A,,Clear,120,2013-03-29 20:52:00
4:14 PM,42.8,30.2,61,30.07,10.0,ESE,8.1,-,N/A,,Clear,120,2013-03-29 21:14:00
4:35 PM,42.8,30.2,61,30.07,10.0,SE,8.1,-,N/A,,Clear,130,2013-03-29 21:35:00
4:53 PM,42.8,30.2,61,30.07,10.0,SE,5.8,-,N/A,,Clear,140,2013-03-29 21:53:00
5:15 PM,42.8,30.2,61,30.07,10.0,SSE,8.1,-,N/A,,Clear,150,2013-03-29 22:15:00
5:34 PM,41.0,30.2,65,30.07,10.0,SSE,9.2,-,N/A,,Clear,150,2013-03-29 22:34:00
5:53 PM,39.2,30.2,70,30.07,10.0,SSE,8.1,-,N/A,,Clear,150,2013-03-29 22:53:00
6:15 PM,39.2,30.2,70,30.07,10.0,SSE,8.1,-,N/A,,Scattered Clouds,160,2013-03-29 23:15:00
6:35 PM,39.2,30.2,70,30.07,10.0,South,6.9,-,N/A,,Mostly Cloudy,170,2013-03-29 23:35:00
6:53 PM,37.4,30.2,75,30.06,10.0,South,3.5,-,N/A,,Scattered Clouds,170,2013-03-29 23:53:00
7:15 PM,37.4,30.2,75,30.05,10.0,SSE,4.6,-,N/A,,Clear,160,2013-03-30 00:15:00
7:35 PM,37.4,30.2,75,30.05,10.0,South,5.8,-,N/A,,Clear,170,2013-03-30 00:35:00
7:52 PM,35.6,30.2,81,30.05,10.0,South,5.8,-,N/A,,Drizzle,170,2013-03-30 00:52:00
8:14 PM,37.4,30.2,75,30.04,7.0,SSE,5.8,-,N/A,Rain,Light Rain,150,2013-03-30 01:14:00
8:35 PM,35.6,30.2,81,30.02,10.0,SE,5.8,-,N/A,,Light Drizzle,140,2013-03-30 01:35:00
8:53 PM,35.6,30.2,81,30.02,7.0,SSE,5.8,-,N/A,,Overcast,150,2013-03-30 01:53:00
9:14 PM,35.6,30.2,81,30.02,7.0,South,4.6,-,N/A,,Overcast,170,2013-03-30 02:14:00
9:35 PM,35.6,32.0,87,30.01,7.0,SSE,9.2,-,N/A,,Mostly Cloudy,160,2013-03-30 02:35:00
9:53 PM,35.6,33.8,93,30.00,7.0,SSE,9.2,-,N/A,,Mostly Cloudy,160,2013-03-30 02:53:00
10:15 PM,35.6,33.8,93,29.99,7.0,South,10.4,-,N/A,,Overcast,170,2013-03-30 03:15:00
10:34 PM,35.6,33.8,93,29.99,7.0,SSE,8.1,-,N/A,,Overcast,160,2013-03-30 03:34:00
10:53 PM,37.4,33.8,87,29.98,7.0,SSE,9.2,-,N/A,,Overcast,160,2013-03-30 03:53:00
11:15 PM,37.4,33.8,87,29.98,7.0,SSE,4.6,-,N/A,,Overcast,150,2013-03-30 04:15:00
11:35 PM,35.6,33.8,93,29.96,7.0,SE,4.6,-,N/A,,Overcast,140,2013-03-30 04:35:00
11:52 PM,37.4,33.8,87,29.95,7.0,ESE,6.9,-,N/A,,Overcast,120,2013-03-30 04:52:00